Wind_Speed
96 97 97 97 98 99 99 99 100 100 101 101 101 102 102 102 102 103 103 105 106 107 107 108 109 110 110 110 110 110 110 110 109 108 108 108 108 108 107 106 104 105 106 104 102 101 100 100 99 98 97 96
96 96 96 97 97 98 98 97 98 99 100 100 101 101 101 102 102 103 103 104 104 105 106 107 108 109 110 110 110 109 109 109 109 108 108 108 108 108 107 107 106 106 105 104 102 101 101 100 99 98 97 95
99 99 99 100 101 101 101 101 101 102 102 103 103 103 104 105 106 107 107 107 107 107 107 108 108 109 109 110 111 111 111 111 111 110 110 110 109 109 109 110 108 106 105 105 104 103 102 100 99 98 97 96
102 102 102 102 103 103 103 104 104 104 105 105 105 106 106 107 108 109 109 109 110 110 110 111 111 112 112 112 113 113 113 114 115 115 114 113 113 113 112 111 109 107 107 107 106 105 103 101 100 99 98 97
104 104 104 104 104 104 104 104 105 105 106 106 107 107 108 108 108 107 108 108 109 110 111 111 111 111 111 111 111 111 112 113 114 115 116 116 115 114 113 111 109 108 108 108 107 106 105 103 102 101 100 99
105 105 105 105 105 104 104 105 105 106 106 107 108 108 109 109 109 109 109 109 110 110 110 110 110 110 110 110 110 110 110 110 111 111 113 113 113 112 112 111 110 109 109 109 108 108 108 107 105 104 102 102
104 104 104 104 104 105 105 106 106 107 108 108 109 109 110 110 110 111 111 111 111 111 112 112 113 113 113 113 113 113 112 112 112 112 112 112 112 112 112 112 112 111 111 111 111 111 111 110 109 107 105 104
104 104 104 104 104 105 106 107 108 108 109 110 110 110 111 111 111 112 112 113 114 114 115 115 116 116 116 117 117 117 116 116 115 115 115 115 115 115 115 114 114 114 114 114 114 114 113 112 111 110 108 106
104 105 105 106 106 107 108 108 109 110 111 112 113 113 113 114 114 115 116 116 117 117 118 118 119 119 119 120 120 120 120 120 119 119 118 118 118 119 118 118 117 117 116 116 116 115 115 113 112 111 110 107
106 107 108 109 110 110 111 112 113 114 115 116 116 116 117 117 118 119 119 120 120 120 121 121 122 122 123 123 123 123 123 123 123 122 121 121 120 121 120 120 119 118 117 116 116 115 114 112 111 110 109 107
109 110 111 112 114 115 115 116 117 118 119 119 120 121 121 121 122 122 123 123 124 124 124 124 125 125 125 125 125 124 124 124 123 123 122 121 120 120 119 119 119 118 116 114 113 112 111 109 108 108 106 105
112 113 115 116 117 118 119 120 121 122 122 123 123 124 124 125 125 125 125 126 126 126 126 126 125 125 124 124 123 122 121 121 121 121 120 120 119 117 116 115 115 114 114 112 110 108 107 106 105 105 104 102
115 116 117 119 120 121 122 122 123 124 124 124 124 124 124 125 125 125 126 126 126 126 125 125 124 123 122 121 120 119 118 118 117 117 117 116 115 114 113 112 111 110 110 109 108 106 104 103 103 102 101 100
117 118 119 119 120 121 121 122 122 123 123 123 123 123 124 124 124 125 125 125 125 125 124 123 123 122 121 120 119 118 117 116 115 114 114 113 113 112 111 109 108 107 106 106 106 104 103 101 101 101 100 99
116 116 117 117 118 119 119 120 120 121 122 122 123 123 124 124 124 124 124 124 124 124 123 123 122 121 121 120 119 118 117 116 114 114 113 112 112 112 111 110 108 105 104 104 104 104 102 101 100 100 100 99
112 113 114 115 116 117 118 119 120 121 122 122 123 124 124 124 125 125 125 125 124 124 124 123 122 122 121 120 119 118 117 116 115 114 113 112 112 111 111 111 109 107 104 103 102 102 102 101 100 100 100 100
110 112 113 114 115 117 118 119 120 121 122 123 124 124 125 125 125 125 126 125 125 124 124 123 122 122 121 120 119 118 117 116 115 114 113 112 111 110 110 110 109 108 106 103 102 101 101 100 99 99 99 101
110 112 113 115 116 117 118 120 121 122 123 124 125 125 125 125 125 125 125 125 124 124 123 122 121 120 120 119 118 117 116 115 114 113 112 111 110 109 108 108 108 108 107 106 103 101 100 100 100 99 99 100
111 113 114 116 117 118 119 120 121 122 123 124 125 126 126 125 125 124 124 123 123 122 122 121 121 120 119 118 118 117 116 115 114 113 112 111 110 110 108 108 107 107 107 107 105 103 101 100 100 99 99 99
113 114 115 117 118 119 120 121 122 122 123 124 125 125 126 126 125 125 124 123 122 122 121 121 121 121 120 119 118 118 117 116 115 114 113 112 111 110 109 108 107 107 107 107 106 105 104 102 101 101 100 99
114 115 116 117 118 120 121 121 122 123 123 124 124 124 125 125 125 125 124 123 123 122 121 120 120 119 119 119 119 118 117 116 116 115 114 113 112 111 110 109 108 108 107 107 107 106 106 104 102 102 102 101
116 116 117 118 119 120 121 122 122 122 122 122 122 122 122 122 122 122 121 121 121 120 119 119 118 117 117 117 117 117 116 116 115 114 114 114 113 112 110 109 109 109 108 107 107 107 107 106 105 104 103 103
117 117 118 118 119 119 120 120 120 120 120 119 119 118 118 117 117 117 117 117 117 117 116 116 116 115 114 113 113 113 114 114 114 114 113 113 113 112 111 110 109 109 109 108 107 107 107 107 107 106 105 104
117 117 117 117 118 118 118 117 117 117 116 116 115 115 114 113 113 112 112 112 112 112 112 112 112 112 111 110 110 109 110 111 112 112 112 112 112 112 112 111 109 108 108 109 108 108 108 107 107 107 107 106
116 116 116 116 116 116 115 115 115 114 114 113 113 112 111 110 109 108 108 108 107 108 108 108 108 109 109 108 108 107 107 107 108 109 110 111 111 111 111 111 110 109 108 108 109 108 108 108 108 108 108 108
115 116 116 115 115 114 114 114 113 112 112 111 110 110 109 108 107 106 106 105 105 105 106 106 107 107 107 108 107 107 106 106 106 106 107 108 109 110 110 110 110 109 108 108 108 109 109 109 108 108 108 109
116 116 116 115 115 114 113 112 111 110 109 108 108 108 108 107 106 106 105 105 104 104 104 104 105 106 106 106 106 106 106 106 105 104 105 106 107 108 109 109 110 110 109 108 108 108 109 109 109 109 108 109
116 117 116 116 114 113 112 110 109 108 107 107 107 107 107 107 106 106 105 104 104 103 103 103 103 103 104 104 105 105 105 105 105 104 103 104 104 106 107 108 109 110 109 108 108 109 109 109 110 110 109 109
117 116 116 115 113 112 110 108 107 106 105 105 105 105 106 106 105 105 104 103 103 102 102 102 101 102 102 102 103 103 104 104 104 104 103 103 102 103 104 106 107 109 110 109 108 109 110 110 110 110 111 111
116 115 114 113 111 109 107 106 105 104 104 104 104 104 104 104 104 103 103 103 102 102 101 101 101 101 101 101 102 102 103 103 104 104 104 103 102 102 102 103 105 107 109 109 108 108 109 110 111 111 111 112
115 113 112 110 107 106 104 103 103 103 103 102 102 102 102 102 102 102 102 102 102 102 101 101 100 100 100 100 101 101 102 102 103 104 104 104 103 102 101 101 103 105 107 109 109 108 108 109 111 111 112 113
Wind_Direction
272 272 271 271 271 271 271 271 270 270 270 271 271 271 271 270 269 268 267 267 266 266 266 267 267 267 267 268 268 268 268 268 268 268 268 269 269 269 269 269 269 269 269 269 269 270 270 270 270 270 270 269
272 271 270 270 270 270 270 269 269 270 270 270 270 270 270 269 269 269 268 267 267 266 266 266 267 267 268 268 268 268 268 267 267 267 267 268 268 268 268 269 269 269 269 269 269 269 269 269 269 269 269 269
271 271 270 270 270 270 269 269 269 269 269 269 269 269 269 269 269 268 268 267 267 266 266 266 266 267 267 267 268 267 267 267 267 267 266 267 267 267 268 268 269 268 268 269 269 269 269 268 268 268 268 268
271 271 271 271 270 270 270 269 269 269 269 269 269 269 269 270 269 268 267 267 267 266 266 266 266 266 266 267 267 267 267 267 267 267 266 266 266 267 267 267 267 267 268 268 268 268 268 267 267 267 267 267
271 271 271 271 270 270 270 270 270 270 270 270 270 270 271 271 270 268 268 268 267 267 266 266 266 266 267 267 267 267 267 267 267 267 266 266 266 266 266 266 266 266 267 267 267 267 267 266 266 266 266 266
271 271 271 270 270 270 270 270 270 270 270 270 270 270 270 270 270 269 269 269 268 268 268 268 267 267 267 267 267 267 267 267 267 267 267 266 266 266 266 266 266 266 265 266 266 266 266 266 266 265 265 265
271 271 271 271 270 270 270 270 270 269 269 269 269 269 269 269 269 269 269 269 268 268 268 269 268 268 268 268 267 267 267 267 267 266 266 266 266 266 265 265 265 265 265 265 265 266 266 266 266 265 265 264
271 271 271 271 271 271 271 271 270 270 270 270 270 270 269 269 268 268 268 268 268 268 268 268 268 268 268 268 268 268 267 267 266 266 266 266 265 265 265 265 265 265 265 265 265 265 265 265 265 265 265 264
271 272 272 272 272 272 272 272 272 272 272 271 271 271 271 270 270 269 269 269 269 269 269 269 269 269 269 269 269 269 268 268 267 267 266 266 265 265 265 265 264 264 264 265 265 265 265 265 265 264 264 263
273 273 273 273 274 274 274 274 274 273 273 273 273 273 272 272 271 271 271 271 270 270 270 270 270 269 269 269 269 269 269 268 268 267 266 266 266 266 266 265 265 264 264 264 264 264 264 264 264 263 263 262
274 274 275 275 275 275 275 275 275 275 275 274 274 274 274 273 273 273 273 272 272 272 272 271 271 270 270 270 270 269 269 269 268 268 267 266 266 266 266 266 266 265 265 264 264 263 263 263 262 262 261 261
275 275 275 275 276 276 276 276 275 275 275 275 275 275 275 275 274 274 274 274 273 273 273 272 272 271 271 270 270 269 269 269 268 268 267 267 266 265 265 265 265 265 265 264 263 263 262 262 261 260 260 259
275 275 275 276 276 276 276 276 276 276 276 275 275 275 275 275 275 275 275 275 274 274 274 273 273 272 272 271 271 270 269 269 268 268 268 267 267 265 264 263 263 263 263 263 262 262 261 260 260 259 259 258
276 276 276 276 276 276 276 276 276 276 276 276 276 276 276 275 275 275 275 275 275 275 274 274 274 273 273 272 272 271 270 270 269 269 268 268 268 267 265 263 262 261 261 261 261 260 259 259 259 258 258 257
276 276 276 276 276 276 276 276 276 277 277 277 277 277 277 276 276 276 276 276 275 275 275 274 274 274 273 273 273 272 272 271 270 269 269 268 268 267 267 265 263 261 260 259 259 259 258 257 257 257 257 256
276 276 276 276 276 277 277 277 277 277 277 277 277 277 277 277 277 277 276 276 276 276 275 275 275 275 274 274 273 273 272 271 270 270 269 268 267 267 266 266 265 263 260 258 258 257 257 256 255 255 255 255
276 276 276 277 277 277 277 278 278 278 278 278 277 277 277 277 277 277 277 277 276 276 276 276 276 275 275 274 274 273 272 272 271 270 269 268 267 266 265 265 265 264 262 260 257 256 256 255 254 253 253 254
277 277 277 277 278 278 278 278 278 278 278 278 278 278 278 277 277 277 277 277 277 277 276 276 276 275 275 275 274 273 273 272 271 270 269 268 267 265 264 264 263 263 262 261 258 256 255 254 253 252 251 251
278 278 278 278 278 278 278 279 279 279 279 279 279 279 279 279 278 278 277 277 277 277 277 276 276 276 275 275 274 274 273 272 271 270 269 268 267 266 264 263 262 261 261 261 259 257 255 253 252 251 250 249
279 279 279 279 279 279 280 280 279 279 279 279 279 279 279 279 279 279 278 278 277 277 276 276 276 275 275 275 274 274 273 272 271 271 270 268 267 266 265 263 262 261 260 259 259 258 255 253 251 251 249 248
280 280 280 280 281 281 280 280 280 279 279 279 279 279 278 278 278 278 278 278 277 277 276 275 275 274 274 274 274 273 273 272 271 270 270 269 267 266 265 264 262 261 260 258 258 257 256 253 251 249 249 247
282 282 282 282 281 281 281 280 280 280 279 279 279 278 278 278 278 278 277 277 277 276 276 275 274 273 273 272 272 272 272 271 271 270 269 269 268 266 265 264 263 262 260 259 257 256 255 254 252 249 248 247
283 282 283 282 282 282 282 281 281 281 281 280 280 279 279 278 278 278 277 277 276 276 276 275 274 273 272 272 271 271 270 270 270 269 268 268 267 266 265 264 262 262 261 259 257 256 254 253 252 250 247 246
284 284 284 284 284 284 283 283 283 283 282 282 282 281 280 280 279 279 278 278 277 277 276 275 275 274 273 272 270 269 269 269 268 268 268 267 266 266 265 264 262 261 260 259 258 256 255 253 251 250 248 246
286 286 286 286 286 286 286 285 285 285 285 284 284 283 282 281 281 280 279 279 278 278 277 276 276 275 273 272 271 270 268 268 267 267 267 266 266 265 264 263 262 261 259 259 258 257 255 253 251 250 249 247
288 288 288 288 288 288 288 288 287 287 286 286 285 284 283 283 282 281 280 279 279 278 277 277 276 275 274 273 272 271 269 268 267 266 266 265 265 264 263 263 262 261 259 258 257 256 255 254 252 250 248 247
290 290 290 290 290 290 289 289 288 288 287 286 286 285 284 284 283 282 281 280 279 279 278 277 276 275 274 274 273 272 270 269 267 266 265 264 264 264 263 262 261 260 259 258 257 256 255 254 253 251 248 247
291 291 291 291 291 290 290 289 289 288 287 286 286 285 285 284 283 283 282 281 280 279 278 277 276 275 275 274 273 272 271 270 268 267 265 264 263 263 262 262 261 260 259 257 256 255 254 253 252 251 249 247
292 292 292 291 291 291 290 289 288 288 287 286 286 285 285 284 283 283 282 281 280 279 278 277 276 275 275 274 273 272 271 270 269 268 266 264 263 262 261 261 261 260 259 257 256 255 254 253 251 251 250 248
292 292 292 291 291 290 290 289 289 288 288 287 287 286 285 285 284 283 283 282 281 280 279 278 277 276 275 274 273 273 272 271 270 268 267 265 263 261 260 260 260 259 259 258 256 254 253 252 251 250 249 248
292 292 291 291 290 290 290 289 289 289 289 288 287 287 286 285 284 284 283 282 281 280 279 278 277 276 275 274 273 273 272 271 270 269 268 266 265 263 260 259 259 258 258 258 256 254 253 252 251 250 249 248
Height
10697 10696 10695 10694 10693 10692 10691 10690 10689 10688 10687 10686 10686 10685 10685 10684 10684 10685 10685 10685 10685 10685 10686 10685 10684 10683 10684 10685 10685 10685 10685 10684 10685 10686 10686 10687 10686 10686 10688 10689 10692 10690 10687 10689 10692 10693 10694 10695 10696 10696 10696 10698
10686 10685 10684 10684 10683 10682 10681 10680 10679 10678 10677 10676 10675 10674 10674 10673 10673 10673 10673 10674 10674 10674 10674 10674 10673 10672 10672 10672 10673 10674 10673 10672 10673 10675 10675 10676 10676 10676 10676 10678 10680 10679 10677 10678 10681 10683 10684 10685 10685 10686 10687 10689
10675 10674 10674 10673 10672 10672 10671 10670 10669 10668 10667 10666 10665 10664 10663 10662 10662 10661 10661 10661 10662 10662 10662 10662 10662 10662 10661 10661 10661 10661 10661 10660 10660 10662 10664 10664 10664 10665 10665 10666 10667 10668 10667 10667 10669 10671 10673 10675 10675 10676 10677 10679
10665 10664 10663 10662 10661 10660 10659 10659 10658 10657 10656 10655 10654 10653 10652 10651 10650 10649 10648 10648 10648 10649 10650 10649 10649 10649 10649 10649 10649 10648 10649 10649 10648 10648 10650 10652 10652 10653 10654 10654 10656 10657 10656 10656 10657 10658 10661 10663 10665 10666 10667 10668
10654 10653 10652 10651 10650 10649 10648 10647 10646 10645 10644 10643 10642 10641 10640 10639 10638 10637 10636 10636 10635 10635 10635 10636 10636 10636 10636 10636 10636 10636 10636 10636 10636 10636 10636 10638 10640 10640 10641 10642 10644 10645 10645 10644 10645 10646 10647 10650 10653 10655 10657 10658
10643 10641 10640 10639 10638 10636 10635 10634 10633 10633 10632 10631 10630 10629 10628 10627 10626 10625 10624 10623 10623 10622 10622 10622 10622 10622 10622 10622 10623 10623 10623 10623 10623 10623 10623 10624 10626 10628 10628 10629 10631 10633 10633 10632 10634 10634 10635 10637 10639 10643 10645 10647
10631 10629 10628 10627 10626 10624 10623 10621 10620 10620 10619 10618 10617 10616 10615 10615 10614 10613 10612 10611 10610 10610 10609 10609 10608 10607 10608 10608 10608 10609 10609 10610 10610 10610 10611 10611 10612 10614 10615 10616 10617 10619 10620 10620 10622 10622 10623 10624 10626 10629 10632 10635
10619 10617 10616 10615 10613 10612 10610 10608 10607 10606 10605 10604 10603 10602 10602 10601 10601 10600 10599 10598 10598 10597 10596 10595 10595 10593 10593 10593 10592 10593 10593 10594 10595 10596 10597 10597 10597 10598 10601 10602 10603 10605 10606 10608 10609 10609 10609 10612 10613 10615 10618 10622
10608 10606 10604 10602 10601 10599 10597 10595 10594 10593 10591 10590 10589 10588 10587 10587 10586 10586 10585 10585 10584 10583 10582 10581 10581 10580 10579 10578 10578 10577 10577 10578 10579 10581 10582 10583 10583 10583 10584 10587 10589 10591 10593 10594 10595 10595 10596 10598 10600 10601 10604 10608
10596 10594 10592 10590 10588 10586 10584 10582 10580 10579 10578 10576 10574 10574 10573 10572 10571 10570 10570 10569 10568 10568 10567 10567 10566 10565 10564 10563 10563 10562 10562 10562 10563 10564 10565 10567 10568 10568 10569 10570 10572 10575 10578 10580 10580 10581 10583 10584 10586 10588 10591 10595
10584 10582 10579 10577 10575 10573 10570 10568 10567 10565 10564 10562 10560 10559 10557 10557 10556 10555 10554 10553 10552 10551 10550 10550 10549 10549 10549 10548 10548 10547 10547 10546 10546 10547 10548 10550 10552 10554 10554 10555 10556 10558 10561 10565 10566 10567 10569 10570 10572 10573 10576 10580
10572 10569 10567 10564 10562 10559 10557 10554 10552 10551 10549 10548 10546 10544 10542 10540 10539 10538 10537 10535 10534 10533 10532 10532 10532 10531 10532 10531 10531 10531 10531 10531 10531 10531 10531 10532 10535 10537 10539 10541 10542 10542 10544 10548 10551 10554 10555 10556 10558 10559 10562 10565
10559 10556 10554 10551 10549 10546 10543 10540 10538 10536 10535 10533 10532 10530 10528 10525 10523 10521 10519 10518 10516 10515 10515 10514 10514 10513 10513 10514 10514 10514 10515 10515 10515 10515 10515 10515 10516 10519 10522 10525 10528 10529 10530 10532 10535 10539 10542 10543 10544 10545 10548 10551
10546 10543 10540 10537 10535 10532 10529 10526 10523 10521 10519 10517 10516 10514 10512 10510 10508 10505 10503 10501 10500 10499 10498 10497 10497 10496 10496 10496 10496 10496 10497 10498 10499 10499 10499 10499 10500 10501 10503 10506 10511 10514 10516 10517 10519 10523 10527 10530 10531 10531 10534 10537
10533 10530 10527 10523 10520 10518 10515 10513 10510 10507 10504 10502 10500 10497 10495 10494 10491 10489 10487 10485 10483 10482 10481 10480 10480 10479 10479 10478 10478 10479 10479 10480 10481 10482 10483 10484 10484 10484 10485 10487 10491 10496 10500 10502 10504 10507 10511 10515 10518 10518 10519 10523
10520 10517 10514 10511 10507 10504 10501 10499 10496 10493 10490 10487 10484 10482 10479 10477 10474 10472 10470 10468 10467 10465 10464 10463 10462 10461 10461 10461 10461 10461 10461 10462 10462 10464 10465 10466 10467 10469 10469 10470 10472 10476 10481 10485 10488 10491 10494 10498 10503 10505 10506 10508
10508 10505 10501 10498 10495 10491 10488 10484 10481 10478 10475 10472 10469 10466 10464 10461 10459 10456 10453 10451 10450 10448 10447 10446 10445 10443 10443 10442 10442 10442 10443 10443 10444 10445 10447 10448 10450 10452 10453 10455 10456 10458 10462 10466 10470 10474 10478 10481 10486 10490 10492 10493
10496 10493 10489 10485 10482 10478 10475 10471 10467 10463 10459 10455 10452 10449 10447 10444 10443 10441 10438 10436 10434 10432 10430 10429 10428 10427 10425 10425 10424 10424 10424 10425 10425 10426 10428 10430 10432 10434 10436 10439 10440 10442 10444 10447 10452 10457 10461 10465 10468 10473 10477 10479
10484 10480 10476 10472 10468 10464 10461 10457 10453 10450 10445 10440 10436 10432 10429 10426 10424 10423 10422 10420 10418 10416 10414 10412 10411 10409 10408 10407 10407 10407 10407 10407 10407 10408 10409 10412 10414 10415 10418 10421 10423 10426 10428 10430 10433 10438 10443 10448 10451 10456 10460 10465
10470 10466 10462 10458 10454 10450 10446 10442 10439 10435 10431 10426 10422 10418 10414 10410 10407 10405 10403 10402 10401 10400 10399 10397 10395 10393 10391 10390 10389 10389 10389 10389 10389 10389 10390 10392 10395 10397 10399 10402 10406 10408 10411 10413 10415 10419 10424 10430 10435 10438 10443 10448
10455 10452 10448 10444 10439 10435 10430 10426 10422 10418 10415 10412 10408 10404 10399 10395 10391 10388 10386 10384 10382 10381 10380 10380 10379 10378 10375 10373 10372 10371 10371 10371 10371 10372 10372 10373 10375 10378 10381 10384 10387 10390 10393 10396 10399 10401 10405 10410 10417 10421 10425 10431
10440 10436 10433 10429 10424 10419 10414 10409 10405 10401 10398 10395 10392 10388 10384 10380 10376 10372 10369 10366 10364 10362 10361 10361 10360 10360 10360 10358 10356 10354 10354 10354 10354 10354 10355 10355 10356 10358 10362 10366 10369 10372 10374 10377 10381 10384 10387 10391 10397 10403 10408 10413
10424 10421 10417 10412 10408 10402 10397 10392 10388 10384 10380 10377 10373 10370 10367 10364 10360 10356 10353 10349 10347 10344 10342 10341 10341 10341 10342 10342 10341 10340 10338 10337 10336 10336 10337 10338 10338 10339 10342 10347 10352 10354 10356 10358 10362 10366 10370 10373 10378 10384 10391 10396
10410 10406 10401 10396 10391 10386 10380 10376 10371 10366 10362 10359 10355 10351 10349 10346 10343 10340 10336 10333 10330 10327 10325 10323 10322 10321 10322 10323 10324 10323 10322 10321 10319 10319 10319 10320 10321 10322 10323 10326 10332 10337 10339 10340 10344 10347 10351 10355 10360 10366 10372 10378
10396 10390 10385 10380 10375 10370 10364 10359 10355 10350 10345 10341 10337 10333 10331 10328 10326 10323 10320 10317 10315 10312 10309 10306 10304 10303 10302 10302 10304 10305 10305 10305 10304 10303 10303 10303 10303 10305 10306 10307 10311 10318 10322 10323 10326 10329 10332 10336 10341 10348 10353 10359
10381 10374 10369 10364 10359 10354 10349 10344 10339 10334 10329 10324 10320 10315 10313 10311 10308 10306 10304 10302 10300 10296 10293 10291 10288 10285 10284 10283 10284 10285 10286 10287 10288 10288 10287 10287 10286 10287 10289 10290 10292 10297 10303 10307 10309 10312 10314 10317 10322 10329 10335 10340
10366 10359 10353 10348 10343 10339 10334 10328 10323 10318 10313 10309 10304 10299 10296 10294 10291 10290 10287 10285 10283 10281 10278 10275 10272 10269 10267 10266 10266 10266 10266 10267 10269 10271 10272 10271 10271 10270 10271 10273 10274 10277 10282 10288 10292 10294 10297 10300 10303 10309 10316 10322
10352 10344 10337 10332 10328 10323 10318 10313 10308 10303 10299 10294 10289 10285 10281 10277 10275 10273 10270 10268 10266 10265 10262 10259 10257 10254 10252 10250 10249 10248 10248 10248 10249 10252 10254 10255 10255 10255 10254 10255 10255 10257 10262 10269 10274 10275 10279 10283 10286 10290 10296 10302
10337 10330 10323 10318 10313 10308 10303 10298 10293 10289 10285 10280 10275 10270 10266 10262 10259 10256 10254 10251 10249 10247 10245 10243 10242 10240 10238 10235 10232 10231 10230 10230 10230 10231 10234 10236 10238 10239 10240 10239 10238 10237 10240 10248 10255 10257 10260 10264 10268 10272 10275 10280
10322 10316 10309 10304 10299 10294 10289 10284 10278 10274 10270 10265 10260 10256 10251 10246 10243 10240 10237 10234 10232 10230 10228 10226 10225 10224 10222 10220 10217 10216 10214 10213 10212 10212 10214 10216 10219 10222 10224 10224 10223 10221 10220 10225 10233 10239 10242 10244 10248 10254 10257 10260
10307 10302 10296 10291 10286 10280 10275 10270 10264 10259 10255 10250 10245 10241 10236 10231 10228 10225 10221 10218 10215 10213 10211 10209 10209 10207 10206 10204 10202 10200 10199 10197 10195 10194 10195 10196 10199 10202 10206 10209 10208 10206 10204 10205 10210 10217 10224 10227 10229 10234 10239 10242